Home > Weather > Amstetten > Past weeks

Flag for Austria Weather for the Past 2 Weeks in Amstetten, Lower Austria, Austria

Now
41 °F

Overcast.


Feels Like: 38 °F
Forecast: 40 / 53 °F
Wind: 5 mph from West

Location: Linz / Hoersching-Flughafen

Current Time: Feb 8, 2016 at 1:26:14 AM

Latest Report: Feb 7, 2016 at 11:00 PM


Visibility: 22 mi

Pressure: 29.91 "Hg

Humidity: 85%

Dew point: 37 °F

Location of AmstettenLocation

Historic Weather in Amstetten — Graph

°F

Amstetten Temperature Yesterday

Maximum temperature yesterday: 49 °F (at 3:00 PM)
Minimum temperature yesterday: 28 °F (at 8:00 AM)
Average temperature yesterday: 39 °F

High & Low Weather Summary for the Past Weeks

 TemperatureHumidityPressure
High56 °F (Feb 1, 4:00 PM)100% (Jan 25, 6:00 PM)30.65 "Hg (Jan 25, 6:00 PM)
Low26 °F (Jan 27, 8:00 AM)56% (Jan 28, 3:00 PM)29.72 "Hg (Feb 7, 4:00 PM)
Average39 °F88%30.25 "Hg
* Reported Jan 23 11:00 PM — Feb 7 11:00 PM, Amstetten, Weather by CustomWeather, © 2016

Note: Actual official high and low records may vary slightly from our data, if they occured in-between our weather recording intervals... More about our weather records

Advertising

Amstetten Weather History for the Previous 24 Hours

 ConditionsComfort  
Time TempWeatherWind HumidityBarometerVisibility
11:00 PM
Sun, Feb 7
41 °FOvercast.5 mph85%29.91 "Hg22 mi
10:00 PM40 °FOvercast.N/A85%29.90 "Hg8 mi
9:00 PM38 °FOvercast.N/A89%29.85 "Hg6 mi
8:00 PM38 °FOvercast.N/A91%29.80 "Hg6 mi
7:00 PM40 °FOvercast.N/A86%29.78 "Hg10 mi
6:00 PM43 °FOvercast.N/A78%29.75 "Hg17 mi
5:00 PM46 °FOvercast.N/A72%29.74 "Hg14 mi
4:00 PM47 °FOvercast.N/A71%29.72 "Hg19 mi
3:00 PM49 °FPartly sunny.3 mph64%29.72 "Hg22 mi
2:00 PM46 °FPartly sunny.6 mph70%29.74 "Hg19 mi
1:00 PM43 °FPartly sunny.6 mph73%29.78 "Hg14 mi
12:00 PM40 °FScattered clouds.5 mph80%29.82 "Hg10 mi
11:00 AM36 °FPartly sunny.5 mph86%29.84 "Hg9 mi
10:00 AM33 °FPartly sunny.N/A92%29.85 "Hg6 mi
9:00 AM30 °FPartly sunny.N/A96%29.87 "Hg4 mi
8:00 AM28 °FPartly sunny.N/A98%29.88 "Hg3 mi
7:00 AM29 °FPassing clouds.N/A96%29.87 "Hg4 mi
6:00 AM33 °FPassing clouds.N/A93%29.85 "Hg7 mi
Weather by CustomWeather, © 2016

See weather overviewHow to use our weather pages